Weather History for Rawlins, WY

Change the Weather History Date:

Thursday, September 26, 2013

  Actual Average Record
Temperature  
Mean Temperature 52 °F 51 °F  
Max Temperature 67 °F 66 °F 83 °F (1963)
Min Temperature 37 °F 36 °F 18 °F (1996)
Degree Days  
Heating Degree Days 13 14  
Month to date heating degree days 142 232  
Since 1 July heating degree days 150 325  
Cooling Degree Days 0 0  
Month to date cooling degree days 49 2  
Year to date cooling degree days 371 183  
Growing Degree Days 2 (Base 50)    
Moisture  
Dew Point 33 °F    
Average Humidity 55    
Maximum Humidity 85    
Minimum Humidity 24    
Precipitation  
Precipitation 0.00 in 0.03 in 0.19 in (1979)
Month to date precipitation 2.21 0.84  
Year to date precipitation 5.98 7.39  
Sea Level Pressure  
Sea Level Pressure 29.68 in    
Wind  
Wind Speed 8 mph (West)    
Max Wind Speed 22 mph    
Max Gust Speed 26 mph    
Visibility 10 miles    
Events      
T = Trace of Precipitation, MM = Missing Value Source: NWS Daily Summary

Daily Weather History Graph

Daily Weather History Graph

Search for Another Location

Airport:

Trip Planner

Search our weather history database for the weather conditions in past years. The results will help you decide how hot, cold, wet, or windy it might be!

Date:

Astronomy

Sep. 26, 2013 Rise Set
Actual Time 7:00 AM MDT 6:58 PM MDT
Civil Twilight 6:32 AM MDT 7:26 PM MDT
Nautical Twilight 6:00 AM MDT 7:58 PM MDT
Astronomical Twilight 5:27 AM MDT 8:31 PM MDT
Moon 11:55 PM MDT (9/26) 1:59 PM MDT (9/26)
Length of Visible Light 12h 53m
Length of Day
11h 57m
Waning Gibbous, 54% of the Moon is Illuminated
Sep 26
Waning Gibbous
Sep 26
Last Quarter
Oct 4
New
Oct 11
First Quarter
Oct 18
Full

Hourly Weather History & Observations

Time (MDT) Temp. Windchill Dew Point Humidity Pressure Visibility Wind Dir Wind Speed Gust Speed Precip Events Conditions
12:53 AM 37.0 °F 28.9 °F 32.0 °F 82% 29.65 in 10.0 mi West 12.7 mph - N/A   Overcast
1:53 AM 37.0 °F 32.4 °F 32.0 °F 82% 29.63 in 10.0 mi West 5.8 mph - N/A   Overcast
2:08 AM 37.4 °F 32.1 °F 32.0 °F 81% 29.83 in 10.0 mi West 6.9 mph - N/A   Overcast
2:22 AM 37.4 °F 32.8 °F 32.0 °F 81% 29.84 in 10.0 mi West 5.8 mph - N/A   Overcast
2:53 AM 37.0 °F 32.4 °F 32.0 °F 82% 29.64 in 10.0 mi West 5.8 mph - N/A   Overcast
3:00 AM 37.4 °F 32.1 °F 32.0 °F 81% 29.85 in 10.0 mi WSW 6.9 mph - N/A   Overcast
3:53 AM 37.0 °F 32.4 °F 32.0 °F 82% 29.62 in 10.0 mi WSW 5.8 mph - N/A   Overcast
4:53 AM 37.0 °F 31.6 °F 32.0 °F 82% 29.70 in 10.0 mi WSW 6.9 mph - N/A   Overcast
5:53 AM 37.0 °F 33.3 °F 32.0 °F 82% 29.72 in 10.0 mi SW 4.6 mph - N/A   Overcast
6:53 AM 37.0 °F - 32.0 °F 82% 29.76 in 10.0 mi Calm Calm - N/A   Overcast
7:53 AM 37.9 °F - 33.1 °F 83% 29.78 in 10.0 mi Calm Calm - N/A   Partly Cloudy
8:53 AM 39.9 °F - 32.0 °F 73% 29.77 in 10.0 mi Calm Calm - N/A   Clear
9:53 AM 44.1 °F - 32.0 °F 63% 29.76 in 10.0 mi Calm Calm - N/A   Clear
10:53 AM 48.9 °F - 33.1 °F 54% 29.73 in 10.0 mi North 3.5 mph - N/A   Clear
11:53 AM 53.1 °F - 33.1 °F 47% 29.70 in 10.0 mi East 8.1 mph - N/A   Clear
12:53 PM 57.9 °F - 33.1 °F 39% 29.65 in 10.0 mi East 6.9 mph - N/A   Partly Cloudy
1:53 PM 63.0 °F - 30.0 °F 29% 29.60 in 10.0 mi SW 13.8 mph 25.3 mph N/A   Overcast
2:53 PM 63.0 °F - 28.0 °F 27% 29.59 in 10.0 mi SW 16.1 mph 24.2 mph N/A   Overcast
3:53 PM 66.9 °F - 28.9 °F 24% 29.56 in 10.0 mi WSW 12.7 mph - N/A   Scattered Clouds
4:53 PM 64.9 °F - 28.9 °F 26% 29.58 in 10.0 mi SW 8.1 mph - N/A   Scattered Clouds
5:53 PM 60.1 °F - 30.0 °F 32% 29.60 in 10.0 mi NE 6.9 mph - N/A   Overcast
6:53 PM 57.0 °F - 37.0 °F 47% 29.61 in 10.0 mi NE 11.5 mph - N/A   Scattered Clouds
7:53 PM 55.0 °F - 39.0 °F 55% 29.60 in 10.0 mi NNE 12.7 mph - N/A   Clear
8:53 PM 55.0 °F - 39.9 °F 57% 29.59 in 10.0 mi NNE 9.2 mph - N/A   Mostly Cloudy
9:53 PM 53.1 °F - 39.9 °F 61% 29.60 in 10.0 mi NW 11.5 mph - N/A   Overcast
10:53 PM 46.0 °F 39.6 °F 39.9 °F 79% 29.64 in 10.0 mi NW 15.0 mph - N/A   Mostly Cloudy
11:53 PM 42.1 °F 34.9 °F 36.0 °F 79% 29.69 in 10.0 mi West 13.8 mph 25.3 mph N/A   Overcast